LOWELL-WX Weather Reports


time (UTC)temp
F
wind
direction
speed
knots
gust
knots
rain 1hr
in
rain 24hr
in
rain mn
in
humidity
%
barometer
mb
20260509074559 44 130 0.9 0.0 0.00 0.00 0.00 63 982.9
20260509073119 45 135 0.0 0.0 0.00 0.00 0.00 63 982.9
20260509071600 44 174 1.7 0.0 0.00 0.00 0.00 63 982.8
20260509070130 44 180 1.7 0.0 0.00 0.00 0.00 63 982.8
20260509064559 44 174 1.7 0.0 0.00 0.00 0.00 54 983.2
20260509063116 45 167 1.7 0.0 0.00 0.00 0.00 57 982.9
20260509061559 44 162 1.7 0.0 0.00 0.00 0.00 57 982.9
20260509060144 45 146 0.9 0.0 0.00 0.00 0.00 57 982.9
20260509054559 45 119 1.7 0.0 0.00 0.00 0.00 55 984.4
20260509053114 45 124 1.7 0.0 0.00 0.00 0.00 55 983.9
20260509051557 45 117 0.9 0.0 0.00 0.00 0.00 55 983.9
20260509050131 45 135 1.7 0.0 0.00 0.00 0.00 55 983.9
20260509044558 46 153 0.9 0.0 0.00 0.00 0.00 57 984.8
20260509043114 46 169 0.9 0.0 0.00 0.00 0.00 52 983.5
20260509041558 47 158 2.6 0.0 0.00 0.00 0.00 52 983.6
20260509040135 47 160 2.6 0.0 0.00 0.00 0.00 52 983.6
20260509034558 48 162 1.7 0.0 0.00 0.00 0.00 50 984.2
20260509033113 48 145 1.7 0.0 0.00 0.00 0.00 41 984.9
20260509031558 48 147 2.6 0.0 0.00 0.00 0.00 41 984.9
20260509030131 49 159 3.5 0.0 0.00 0.00 0.00 41 984.9
20260509024557 50 176 2.6 0.0 0.00 0.00 0.00 37 985.5
20260509023116 50 186 3.5 0.0 0.00 0.00 0.00 36 985.2
20260509021558 50 196 3.5 0.0 0.00 0.00 0.00 36 985.2
20260509020127 51 197 3.5 0.0 0.00 0.00 0.00 36 985.2
20260509014557 52 211 2.6 0.0 0.00 0.00 0.00 33 985.2
20260509013111 52 230 2.6 0.0 0.00 0.00 0.00 33 985.2
20260509011557 53 243 3.5 0.0 0.00 0.00 0.00 33 985.2
20260509010124 54 247 3.5 0.0 0.00 0.00 0.00 33 985.2
20260509004555 55 252 3.5 0.0 0.00 0.00 0.00 28 985.0
20260509003115 56 250 3.5 0.0 0.00 0.00 0.00 28 986.2
20260509001555 57 259 3.5 0.0 0.00 0.00 0.00 28 986.2
20260509000137 58 263 4.3 0.0 0.00 0.00 0.00 28 986.2
20260508234557 59 265 6.1 0.0 0.00 0.00 0.00 23 985.5
20260508233117 60 267 7.0 0.0 0.00 0.00 0.00 23 985.8
20260508231559 60 264 7.0 0.0 0.00 0.00 0.00 23 985.8
20260508230123 61 267 7.8 0.0 0.00 0.00 0.00 23 985.8
20260508224559 61 266 7.8 0.0 0.00 0.00 0.00 22 986.0
20260508223117 61 265 8.7 0.0 0.00 0.00 0.00 22 986.7
20260508221600 61 264 8.7 0.0 0.00 0.00 0.00 22 986.7
20260508220125 62 263 8.7 0.0 0.00 0.00 0.00 22 986.7
20260508214559 62 260 9.6 0.0 0.00 0.00 0.00 21 987.2
20260508213117 62 257 9.6 0.0 0.00 0.00 0.00 22 986.8
20260508211559 62 250 8.7 0.0 0.00 0.00 0.00 22 986.8
20260508210129 62 250 8.7 0.0 0.00 0.00 0.00 22 986.8
20260508204600 62 250 9.6 0.0 0.00 0.00 0.00 24 986.8
20260508203118 62 249 9.6 0.0 0.00 0.00 0.00 20 986.7
20260508201600 63 245 7.8 0.0 0.00 0.00 0.00 20 986.7
20260508200125 63 241 8.7 0.0 0.00 0.00 0.00 20 986.7
20260508194600 63 239 8.7 0.0 0.00 0.00 0.00 22 987.1
20260508193114 63 239 7.8 0.0 0.00 0.00 0.00 22 987.1
20260508191559 63 248 6.1 0.0 0.00 0.00 0.00 22 987.1
20260508190123 63 252 7.0 0.0 0.00 0.00 0.00 22 987.1
20260508184559 63 249 7.0 0.0 0.00 0.00 0.00 26 987.4
20260508183118 62 241 7.0 0.0 0.00 0.00 0.00 25 987.1
20260508181559 62 244 7.8 0.0 0.00 0.00 0.00 25 987.1
20260508180130 62 243 7.8 0.0 0.00 0.00 0.00 25 987.1
20260508174600 61 240 8.7 0.0 0.00 0.00 0.00 32 988.1
20260508173118 61 243 7.8 0.0 0.00 0.00 0.00 32 988.1
20260508171559 60 243 7.8 0.0 0.00 0.00 0.00 32 988.1
20260508170125 60 246 7.0 0.0 0.00 0.00 0.00 32 988.1
20260508164559 59 245 7.0 0.0 0.00 0.00 0.00 36 988.5
20260508163118 59 233 7.0 0.0 0.00 0.00 0.00 36 988.7
20260508161559 57 226 7.8 0.0 0.00 0.00 0.00 36 988.7
20260508160130 57 222 7.0 0.0 0.00 0.00 0.00 36 988.7
20260508154600 56 216 7.0 0.0 0.00 0.00 0.00 43 989.8
20260508153120 55 204 6.1 0.0 0.00 0.00 0.00 44 988.5
20260508151559 54 198 6.1 0.0 0.00 0.00 0.00 44 988.5
20260508150129 53 199 5.2 0.0 0.00 0.00 0.00 44 988.5
20260508144600 53 198 4.3 0.0 0.00 0.00 0.00 49 988.9
20260508143117 51 201 4.3 0.0 0.00 0.00 0.00 66 989.1
20260508141600 50 200 3.5 0.0 0.00 0.00 0.00 66 989.1
20260508140138 49 196 3.5 0.0 0.00 0.00 0.00 65 988.9
20260508134559 48 190 3.5 0.0 0.00 0.00 0.00 77 988.7
20260508133114 47 197 3.5 0.0 0.00 0.00 0.00 77 988.7
20260508131559 45 194 3.5 0.0 0.00 0.00 0.00 77 988.7
20260508130133 43 186 3.5 0.0 0.00 0.00 0.00 77 988.7
20260508124600 42 180 2.6 0.0 0.00 0.00 0.00 88 988.2
20260508123118 41 190 1.7 0.0 0.00 0.00 0.00 84 988.6
20260508121559 40 180 0.9 0.0 0.00 0.00 0.00 84 988.6
20260508120146 39 135 0.0 0.0 0.00 0.00 0.00 84 988.6
20260508114559 37 90 0.0 0.0 0.00 0.00 0.00 85 988.1
20260508113121 36 124 0.0 0.0 0.00 0.00 0.00 82 988.9
20260508111559 37 149 0.9 0.0 0.00 0.00 0.00 82 988.9
20260508110125 36 157 0.9 0.0 0.00 0.00 0.00 82 988.9
20260508104601 35 135 0.0 0.0 0.00 0.00 0.00 81 988.2
20260508103119 36 90 0.0 0.0 0.00 0.00 0.00 80 989.0
20260508101602 36 117 0.0 0.0 0.00 0.00 0.00 80 989.1
20260508100126 37 124 0.0 0.0 0.00 0.00 0.00 80 989.1
20260508094600 37 104 0.0 0.0 0.00 0.00 0.00 80 988.3
20260508093115 37 90 0.0 0.0 0.00 0.00 0.00 78 989.2
20260508091601 37 135 0.0 0.0 0.00 0.00 0.00 78 989.2
20260508090130 38 130 0.9 0.0 0.00 0.00 0.00 78 989.2
20260508084601 38 98 0.9 0.0 0.00 0.00 0.00 79 988.7
20260508083119 38 81 0.9 0.0 0.00 0.00 0.00 79 988.4
20260508081600 38 164 0.9 0.0 0.00 0.00 0.00 79 988.4
20260508080132 39 172 0.9 0.0 0.00 0.00 0.00 79 988.4